Aérodrome :
LOGIN :

S'inscrire | Disclaimer

   EN    FR    IT 

 










Légende :    VFR   VFR Marginal   IFR   IFR Intensif   IFR Très Intensif
Visi : 
Plafond : 
>= 8 km
>= 3000ft
5 à 8 km
1000 à 3000 ft
1500m à 5 km
500 à 1000 ft
800 à 1500m
200 à 500 ft
< 800m
< 200 ft
Symboles :   Orages  Brouillard  Fortes neiges  Fortes précipitations  Vent > 20 kt
SIGMETs :   Divers  Orages  Givrage  Turbulence  Onde Orograph.  Cendres Volcan.







- Altitude de l'aérodrome : 788 ft
- Code IATA : DCM
- Voir les cartes d'approche


LFCK - Castres-Mazamet

DERNIER METAR :
  • 172100Z AUTO 07002KT CAVOK 04/02 Q1023 TEMPO 4000 BR

METARs EXPIRÉS :
  • 172030Z AUTO 15002KT CAVOK 03/01 Q1023 TEMPO 4000 BR
  • 172000Z AUTO 00000KT CAVOK 04/02 Q1023 NOSIG
  • 171930Z AUTO 13002KT CAVOK 04/02 Q1023 NOSIG
  • 171900Z AUTO 00000KT CAVOK 04/01 Q1023 NOSIG
  • 171830Z AUTO VRB03KT CAVOK 05/02 Q1023 NOSIG

TAF TAF LFCK
Valide du 17 à 18h jusqu'au 18 à 03h UTC


171700Z 1718/1803 VRB02KT CAVOK
PROB30
TEMPO 1722/1803 4000 BR
Pas de NOTAMs connus pour ce terrain.



MET'MAP, la Météo Aéronautique d'un coup d'oeil ! - Copyright ORBIFLY Décembre 2007 - Disclaimer

ORBIFLY MET'MAP TEAM :

Programmation & Développement : Alexandra Zaïnal
Conception & Développement : Baudouin d'Aumeries
Co-Programmation & Développement : Marc-Olivier Méhu
Soutien technique & logistique : Manuel Goepfert

Contact : metmap@orbifly.com




SOURCES & CREDITS :

   NOAA